Hourly Data Report for November 15, 2017

SHEARWATER RCS
NOVA SCOTIA

44°37'47.000" N
63°30'48.000" W
24.00 m
8205092
71264
AAW

Download Data

Hourly Data (November 2017)
Hourly Data Report for November 15, 2017
TIME
LST
Temp Definition
°C
Dew Point Definition
°C
Rel Hum Definition
%
Precip. Amount Definition
mm

Wind Dir Definition
10's deg

Wind Spd Definition
km/h
Visibility Definition
km
Stn Press Definition
kPa
Hmdx Definition


Wind Chill Definition


Weather Definition


00:00 3.0 -1.6 72 0.0 36 21   101.95     LegendNANA
01:00 3.0 -1.7 71 0.0 36 18   101.96     LegendNANA
02:00 2.8 -2.0 71 0.0 36 18   101.99     LegendNANA
03:00 2.8 -1.8 72 0.0 36 16   102.01     LegendNANA
04:00 2.7 -1.8 72 0.0 1 14   102.01     LegendNANA
05:00 2.7 -1.6 73 0.0 36 14   102.04     LegendNANA
06:00 2.8 -1.2 75 0.0 1 14   102.05     LegendNANA
07:00 2.8 -1.1 76 0.0 35 16   102.07     LegendNANA
08:00 3.0 -0.9 75 0.0 35 17   102.09     LegendNANA
09:00 3.8 -0.5 74 0.0 36 16   102.11     LegendNANA
10:00 5.4 0.3 69 0.0 36 17   102.12     LegendNANA
11:00 5.7 0.0 67 0.0 35 22   102.09     LegendNANA
12:00 6.8 -0.2 61 0.0 36 15   102.05     LegendNANA
13:00 7.0 -0.3 60 0.0 2 14   102.03     LegendNANA
14:00 7.6 -0.7 56 0.0 1 14   101.97     LegendNANA
15:00 6.9 -0.7 58 0.0 3 13   101.97     LegendNANA
16:00 6.5 -1.0 58 0.0 3 13   101.98     LegendNANA
17:00 5.9 -2.0 57 0.0 4 11   102.00     LegendNANA
18:00 5.3 -0.7 65 0.0 35 9   102.06     LegendNANA
19:00 4.6 -0.9 67 0.0 1 12   102.08     LegendNANA
20:00 3.9 -1.3 69 0.0 3 11   102.09     LegendNANA
21:00 2.4 -2.1 72 0.0 1 9   102.10     LegendNANA
22:00 2.0 -2.5 72 0.0 1 10   102.15     LegendNANA
23:00 1.7 -2.5 74 0.0 2 10   102.11     LegendNANA

Notes on Data Quality.

Legend

  • E = Estimated
  • M = Missing
  • NA = Not Available*
  • [empty] = Indicates an unobserved value
Date modified: